Location: Feigenhofen
(48.4939°N, 10.7793°E)
Time: 23:15:17
(UTC+00:00)

Cosmos 1408 - Pass Details

Date: 26 May 2022
Orbit: 447 x 485 km, 82.6° (Epoch: 24 June)

Event Time Altitude Azimuth Distance (km) Brightness Sun altitude
Rises 02:16:11 0° 164° (SSE) 2,541 5.9 -9.4°
Reaches altitude 10° 02:18:26 10° 154° (SSE) 1,664 5.1 -9.1°
Maximum altitude 02:21:39 30° 92° (E) 889 4.4 -8.8°
Drops below altitude 10° 02:24:52 10° 29° (NNE) 1,664 6.8 -8.4°
Sets 02:27:07 0° 19° (NNE) 2,542 7.5 -8.1°
